Coeur d'Alene, ID

7:02 PM PDT on April 27, 2017 (GMT -0700)
Coeur D'Alene

Weather History for KCOE - January, 2014

Change the Weather History Date:

Thursday, January 23, 2014

  Actual Average Record
Temperature  
Mean Temperature 32 °F -  
Max Temperature 33 °F 33 °F 48 °F (2005)
Min Temperature 30 °F 24 °F -2 °F (2008)
Degree Days  
Heating Degree Days 34    
Moisture  
Dew Point 27 °F    
Average Humidity 86    
Maximum Humidity 93    
Minimum Humidity 75    
Precipitation  
Precipitation 0.00 in - - ()
Sea Level Pressure  
Sea Level Pressure 30.52 in    
Wind  
Wind Speed 6 mph (North)    
Max Wind Speed 14 mph    
Max Gust Speed 18 mph    
Visibility 10 miles    
Events      
Averages and records for this station are not official NWS values.
T = Trace of Precipitation, MM = Missing Value Source: NWS Daily Summary

Daily Weather History Graph

Daily Weather History Graph

Search for Another Location

Airport or City:

Trip Planner

Search our weather history database for the weather conditions in past years. The results will help you decide how hot, cold, wet, or windy it might be!

Date:

Astronomy

Jan. 23, 2014 Rise Set
Actual Time 7:24 AM PST 4:34 PM PST
Civil Twilight 6:50 AM PST 5:08 PM PST
Nautical Twilight 6:12 AM PST 5:46 PM PST
Astronomical Twilight 5:36 AM PST 6:22 PM PST
Moon No Moon Rise 10:28 AM PST (1/23)
Length of Visible Light 10h 17m
Length of Day
9h 09m
Waning Gibbous, 54% of the Moon is Illuminated
Jan 23
Waning Gibbous
Jan 23
Last Quarter
Jan 30
New
Feb 6
First Quarter
Feb 14
Full

Hourly Weather History & Observations

Time (PST) Temp. Windchill Dew Point Humidity Pressure Visibility Wind Dir Wind Speed Gust Speed Precip Events Conditions
12:15 AM 30.2 °F 21.9 °F 26.6 °F 86% 30.45 in 10.0 mi NNE 9.2 mph - N/A   Overcast
12:35 AM 30.2 °F 20.8 °F 26.6 °F 86% 30.46 in 10.0 mi NNE 11.5 mph - N/A   Overcast
12:55 AM 30.2 °F 21.9 °F 26.6 °F 86% 30.46 in 10.0 mi NNE 9.2 mph - N/A   Overcast
1:15 AM 30.2 °F 19.8 °F 26.6 °F 86% 30.46 in 10.0 mi NNE 13.8 mph - N/A   Overcast
1:35 AM 30.2 °F 21.9 °F 26.6 °F 86% 30.47 in 10.0 mi NNE 9.2 mph - N/A   Overcast
1:55 AM 30.2 °F 21.3 °F 26.6 °F 86% 30.48 in 10.0 mi NNE 10.4 mph - N/A   Overcast
2:15 AM 30.2 °F 20.8 °F 26.6 °F 86% 30.48 in 10.0 mi NNE 11.5 mph - N/A   Overcast
2:35 AM 30.2 °F 21.3 °F 26.6 °F 86% 30.49 in 10.0 mi NNE 10.4 mph - N/A   Overcast
2:55 AM 30.2 °F 20.2 °F 26.6 °F 86% 30.49 in 10.0 mi NNE 12.7 mph - N/A   Overcast
3:15 AM 30.2 °F 20.2 °F 26.6 °F 86% 30.49 in 10.0 mi NNE 12.7 mph - N/A   Overcast
3:35 AM 30.2 °F 20.2 °F 26.6 °F 86% 30.49 in 10.0 mi NNE 12.7 mph - N/A   Overcast
3:55 AM 30.2 °F 20.2 °F 26.6 °F 86% 30.49 in 10.0 mi NNE 12.7 mph - N/A   Overcast
4:15 AM 30.2 °F 20.2 °F 26.6 °F 86% 30.50 in 10.0 mi NNE 12.7 mph 18.4 mph N/A   Overcast
4:35 AM 30.2 °F 20.8 °F 26.6 °F 86% 30.50 in 10.0 mi NE 11.5 mph - N/A   Overcast
4:55 AM 30.2 °F 21.3 °F 26.6 °F 86% 30.50 in 10.0 mi NNE 10.4 mph - N/A   Overcast
5:15 AM 30.2 °F 21.9 °F 26.6 °F 86% 30.50 in 10.0 mi NNE 9.2 mph - N/A   Overcast
5:35 AM 30.2 °F 21.9 °F 26.6 °F 86% 30.49 in 10.0 mi NNE 9.2 mph - N/A   Overcast
5:55 AM 30.2 °F 23.4 °F 26.6 °F 86% 30.49 in 10.0 mi NE 6.9 mph - N/A   Overcast
6:15 AM 30.2 °F 26.7 °F 26.6 °F 86% 30.49 in 10.0 mi SE 3.5 mph - N/A   Overcast
6:35 AM 30.2 °F 25.4 °F 26.6 °F 86% 30.50 in 10.0 mi SE 4.6 mph - N/A   Overcast
6:55 AM 30.2 °F - 26.6 °F 86% 30.50 in 10.0 mi Calm Calm - N/A   Overcast
7:15 AM 30.2 °F 24.3 °F 26.6 °F 86% 30.50 in 10.0 mi NNE 5.8 mph - N/A   Overcast
7:35 AM 30.2 °F 24.3 °F 26.6 °F 86% 30.51 in 10.0 mi NNE 5.8 mph - N/A   Overcast
7:55 AM 30.2 °F - 26.6 °F 86% 30.51 in 10.0 mi Calm Calm - N/A   Overcast
8:15 AM 30.2 °F 26.7 °F 26.6 °F 86% 30.52 in 10.0 mi SSE 3.5 mph - N/A   Overcast
8:35 AM 30.2 °F - 26.6 °F 86% 30.53 in 10.0 mi Calm Calm - N/A   Overcast
8:55 AM 30.2 °F - 26.6 °F 86% 30.53 in 10.0 mi Calm Calm - N/A   Overcast
9:15 AM 30.2 °F - 26.6 °F 86% 30.53 in 10.0 mi Calm Calm - N/A   Overcast
9:35 AM 30.2 °F - 26.6 °F 86% 30.54 in 10.0 mi Calm Calm - N/A   Overcast
9:55 AM 30.2 °F 26.7 °F 26.6 °F 86% 30.54 in 10.0 mi ESE 3.5 mph - N/A   Overcast
10:15 AM 32.0 °F - 26.6 °F 80% 30.54 in 10.0 mi Calm Calm - N/A   Overcast
10:35 AM 32.0 °F - 26.6 °F 80% 30.55 in 10.0 mi Calm Calm - N/A   Overcast
10:55 AM 32.0 °F 25.6 °F 28.4 °F 87% 30.55 in 10.0 mi ENE 6.9 mph - N/A   Overcast
11:15 AM 33.8 °F 28.6 °F 28.4 °F 81% 30.55 in 10.0 mi NE 5.8 mph - N/A   Overcast
11:35 AM 33.8 °F 30.8 °F 28.4 °F 81% 30.54 in 10.0 mi ESE 3.5 mph - N/A   Overcast
11:55 AM 33.8 °F - 28.4 °F 81% 30.53 in 10.0 mi Calm Calm - N/A   Overcast
12:15 PM 33.8 °F - 28.4 °F 81% 30.53 in 10.0 mi Calm Calm - N/A   Overcast
12:35 PM 33.8 °F - 28.4 °F 81% 30.52 in 10.0 mi Calm Calm - N/A   Overcast
12:55 PM 33.8 °F - 26.6 °F 75% 30.51 in 10.0 mi Calm Calm - N/A   Overcast
1:15 PM 33.8 °F - 28.4 °F 81% 30.51 in 10.0 mi Calm Calm - N/A   Overcast
1:35 PM 33.8 °F - 28.4 °F 81% 30.51 in 10.0 mi Calm Calm - N/A   Overcast
1:55 PM 33.8 °F 30.8 °F 28.4 °F 81% 30.51 in 10.0 mi WSW 3.5 mph - N/A   Overcast
2:15 PM 33.8 °F 30.8 °F 28.4 °F 81% 30.51 in 10.0 mi West 3.5 mph - N/A   Overcast
2:35 PM 33.8 °F 30.8 °F 26.6 °F 75% 30.51 in 10.0 mi West 3.5 mph - N/A   Overcast
2:55 PM 33.8 °F - 28.4 °F 81% 30.52 in 10.0 mi Calm Calm - N/A   Overcast
3:15 PM 33.8 °F - 26.6 °F 75% 30.52 in 10.0 mi Calm Calm - N/A   Overcast
3:35 PM 33.8 °F 28.6 °F 28.4 °F 81% 30.52 in 10.0 mi West 5.8 mph - N/A   Overcast
3:55 PM 32.0 °F 27.5 °F 28.4 °F 87% 30.53 in 10.0 mi WNW 4.6 mph - N/A   Overcast
4:15 PM 32.0 °F 27.5 °F 26.6 °F 80% 30.53 in 10.0 mi West 4.6 mph - N/A   Overcast
4:35 PM 32.0 °F 26.4 °F 28.4 °F 87% 30.52 in 10.0 mi West 5.8 mph - N/A   Overcast
4:55 PM 30.2 °F 25.4 °F 26.6 °F 86% 30.52 in 10.0 mi West 4.6 mph - N/A   Overcast
5:15 PM 30.2 °F 23.4 °F 26.6 °F 86% 30.51 in 10.0 mi West 6.9 mph - N/A   Overcast
5:35 PM 30.2 °F 25.4 °F 26.6 °F 86% 30.52 in 10.0 mi WSW 4.6 mph - N/A   Overcast
5:55 PM 30.2 °F 26.7 °F 26.6 °F 86% 30.52 in 10.0 mi WSW 3.5 mph - N/A   Overcast
6:15 PM 30.2 °F 25.4 °F 26.6 °F 86% 30.53 in 10.0 mi WSW 4.6 mph - N/A   Overcast
6:35 PM 30.2 °F 26.7 °F 28.4 °F 93% 30.53 in 10.0 mi WSW 3.5 mph - N/A   Overcast
6:55 PM 30.2 °F - 28.4 °F 93% 30.53 in 10.0 mi Calm Calm - N/A   Overcast
7:15 PM 30.2 °F 26.7 °F 26.6 °F 86% 30.54 in 10.0 mi WNW 3.5 mph - N/A   Overcast
7:35 PM 30.2 °F - 28.4 °F 93% 30.54 in 10.0 mi Calm Calm - N/A   Overcast
7:55 PM 30.2 °F - 28.4 °F 93% 30.55 in 10.0 mi Calm Calm - N/A   Overcast
8:15 PM 30.2 °F - 28.4 °F 93% 30.56 in 10.0 mi Calm Calm - N/A   Overcast
8:35 PM 30.2 °F - 28.4 °F 93% 30.55 in 10.0 mi Calm Calm - N/A   Overcast
8:55 PM 30.2 °F - 28.4 °F 93% 30.56 in 10.0 mi Calm Calm - N/A   Overcast
9:15 PM 30.2 °F - 28.4 °F 93% 30.56 in 8.0 mi Calm Calm - N/A   Overcast
9:35 PM 30.2 °F - 28.4 °F 93% 30.56 in 6.0 mi Calm Calm - N/A   Overcast
9:55 PM 30.2 °F - 28.4 °F 93% 30.56 in 6.0 mi Calm Calm - N/A   Overcast
10:15 PM 30.2 °F - 28.4 °F 93% 30.57 in 7.0 mi Calm Calm - N/A   Overcast
10:35 PM 30.2 °F 26.7 °F 28.4 °F 93% 30.58 in 6.0 mi West 3.5 mph - N/A   Overcast
10:55 PM 30.2 °F 25.4 °F 28.4 °F 93% 30.58 in 5.0 mi West 4.6 mph - N/A   Overcast
11:15 PM 30.2 °F 26.7 °F 28.4 °F 93% 30.58 in 5.0 mi West 3.5 mph - N/A   Overcast
11:35 PM 30.2 °F - 28.4 °F 93% 30.58 in 5.0 mi Calm Calm - N/A   Overcast
11:55 PM 30.2 °F - 28.4 °F 93% 30.57 in 5.0 mi Calm Calm - N/A   Overcast